Index of /shared/routes/4ec2b029a29c578432c58dbaac7f7227

[ICO]NameLast modifiedSizeDescription

[PARENTDIR]Parent Directory  -  
[   ]140524-1111-Walking.kmz2014-05-24 20:36 38K 
[   ]140524-1111-Walking.kmz.php2014-05-24 20:36 728  
[IMG]140524-1111-Walking.kmz.png2014-05-24 20:36 0  
[   ]140531-1025-Walking.kmz2014-05-31 19:10 28K 
[   ]140531-1025-Walking.kmz.php2014-05-31 19:10 728  
[IMG]140531-1025-Walking.kmz.png2014-05-31 19:10 0  
[   ]140602-1248-Walking.kmz2014-06-02 20:43 14K 
[   ]140602-1248-Walking.kmz.php2014-06-02 20:43 718  
[IMG]140602-1248-Walking.kmz.png2014-06-02 20:43 0  
[   ]140605-1051-Walking.kmz2014-06-05 19:55 32K 
[   ]140605-1051-Walking.kmz.php2014-06-05 19:55 719  
[IMG]140605-1051-Walking.kmz.png2014-06-05 19:55 0  
[   ]140611-1003-Untitled.kmz2014-06-11 20:07 32K 
[   ]140611-1003-Untitled.kmz.php2014-06-11 20:07 722  
[IMG]140611-1003-Untitled.kmz.png2014-06-11 20:07 0  
[   ]140619-1148-Untitled.kmz2014-06-19 21:30 25K 
[   ]140619-1148-Untitled.kmz.php2014-06-19 21:30 718  
[IMG]140619-1148-Untitled.kmz.png2014-06-19 21:30 0  
[   ]140621-1052-Walk.kmz2014-06-21 18:46 13K 
[   ]140621-1052-Walk.kmz.php2014-06-21 18:46 698  
[IMG]140621-1052-Walk.kmz.png2014-06-21 18:46 0  
[   ]140623-1135-Walk.kmz2014-06-23 20:41 29K 
[   ]140623-1135-Walk.kmz.php2014-06-23 20:41 722  
[IMG]140623-1135-Walk.kmz.png2014-06-23 20:41 0  
[   ]140630-0837-Walk.kmz2014-06-30 16:15 12K 
[   ]140630-0837-Walk.kmz.php2014-06-30 16:15 698  
[IMG]140630-0837-Walk.kmz.png2014-06-30 16:15 0  
[   ]140701-0915-Walk.kmz2014-07-01 16:50 12K 
[   ]140701-0915-Walk.kmz.php2014-07-01 16:50 697  
[IMG]140701-0915-Walk.kmz.png2014-07-01 16:50 0  
[   ]140706-0902-Walk.kmz2014-07-06 17:41 29K 
[   ]140706-0902-Walk.kmz.php2014-07-06 17:41 724  
[IMG]140706-0902-Walk.kmz.png2014-07-06 17:41 0  
[   ]140707-0933-Walk.kmz2014-07-07 17:08 12K 
[   ]140707-0933-Walk.kmz.php2014-07-07 17:08 697  
[IMG]140707-0933-Walk.kmz.png2014-07-07 17:08 0  
[   ]140708-1002-Walk.kmz2014-07-08 19:03 24K 
[   ]140708-1002-Walk.kmz.php2014-07-08 19:03 716  
[IMG]140708-1002-Walk.kmz.png2014-07-08 19:03 0  
[   ]140712-0928-Walk.kmz2014-07-12 17:47 25K 
[   ]140712-0928-Walk.kmz.php2014-07-12 17:47 718  
[IMG]140712-0928-Walk.kmz.png2014-07-12 17:47 0  
[   ]140718-1050-Walk.kmz2014-07-18 19:29 29K 
[   ]140718-1050-Walk.kmz.php2014-07-18 19:29 728  
[IMG]140718-1050-Walk.kmz.png2014-07-18 19:29 0  
[   ]140719-0912-Walk.kmz2014-07-19 16:51 12K 
[   ]140719-0912-Walk.kmz.php2014-07-19 16:51 708  
[IMG]140719-0912-Walk.kmz.png2014-07-19 16:51 0  
[   ]140723-0834-Walk.kmz2014-07-23 16:23 15K 
[   ]140723-0834-Walk.kmz.php2014-07-23 16:23 734  
[IMG]140723-0834-Walk.kmz.png2014-07-23 16:23 0  
[   ]140726-1047-Walk.kmz2014-07-26 19:43 32K 
[   ]140726-1047-Walk.kmz.php2014-07-26 19:43 734  
[IMG]140726-1047-Walk.kmz.png2014-07-26 19:43 0  
[   ]140727-0916-Walk.kmz2014-07-27 16:53 13K 
[   ]140727-0916-Walk.kmz.php2014-07-27 16:53 708  
[IMG]140727-0916-Walk.kmz.png2014-07-27 16:53 0  
[   ]140729-0936-Walk.kmz2014-07-29 18:41 35K 
[   ]140729-0936-Walk.kmz.php2014-07-29 18:41 725  
[IMG]140729-0936-Walk.kmz.png2014-07-29 18:41 0  
[   ]140807-1137-Walk.kmz2014-08-07 20:36 27K 
[   ]140807-1137-Walk.kmz.php2014-08-07 20:36 730  
[IMG]140807-1137-Walk.kmz.png2014-08-07 20:36 0  
[   ]140809-1228-Walk.kmz2014-08-09 21:57 31K 
[   ]140809-1228-Walk.kmz.php2014-08-09 21:57 728  
[IMG]140809-1228-Walk.kmz.png2014-08-09 21:57 0  
[   ]140812-1030-Walk.kmz2014-08-12 19:26 32K 
[   ]140812-1030-Walk.kmz.php2014-08-12 19:26 727  
[IMG]140812-1030-Walk.kmz.png2014-08-12 19:26 0  
[   ]140824-1138-Walk.kmz2014-08-24 20:23 30K 
[   ]140824-1138-Walk.kmz.php2014-08-24 20:23 719  
[IMG]140824-1138-Walk.kmz.png2014-08-24 20:23 0  
[   ]140828-1120-Walk.kmz2014-08-28 19:50 25K 
[   ]140828-1120-Walk.kmz.php2014-08-28 19:50 719  
[IMG]140828-1120-Walk.kmz.png2014-08-28 19:50 0  
[   ]140901-0844-Walk.kmz2014-09-01 16:39 18K 
[   ]140901-0844-Walk.kmz.php2014-09-01 16:39 620  
[IMG]140901-0844-Walk.kmz.png2014-09-01 16:39 0  
[   ]140908-1102-Walk.kmz2014-09-08 19:53 27K 
[   ]140908-1102-Walk.kmz.php2014-09-08 19:53 720  
[IMG]140908-1102-Walk.kmz.png2014-09-08 19:53 0  
[   ]140916-0936-Walk.kmz2014-09-16 18:19 28K 
[   ]140916-0936-Walk.kmz.php2014-09-16 18:19 728  
[IMG]140916-0936-Walk.kmz.png2014-09-16 18:19 0  
[   ]140919-1005-Walk.kmz2014-09-19 18:41 25K 
[   ]140919-1005-Walk.kmz.php2014-09-19 18:41 730  
[IMG]140919-1005-Walk.kmz.png2014-09-19 18:41 0  
[   ]140924-0948-Walk.kmz2014-09-24 17:26 10K 
[   ]140924-0948-Walk.kmz.php2014-09-24 17:26 746  
[IMG]140924-0948-Walk.kmz.png2014-09-24 17:26 0  
[   ]141007-1030-Walk.kmz2014-10-07 19:23 29K 
[   ]141007-1030-Walk.kmz.php2014-10-07 19:23 721  
[IMG]141007-1030-Walk.kmz.png2014-10-07 19:23 0  
[   ]141008-1127-Walk.kmz2014-10-08 19:03 13K 
[   ]141008-1127-Walk.kmz.php2014-10-08 19:03 697  
[IMG]141008-1127-Walk.kmz.png2014-10-08 19:03 0  
[   ]141010-1118-Walk.kmz2014-10-10 20:06 26K 
[   ]141010-1118-Walk.kmz.php2014-10-10 20:06 736  
[IMG]141010-1118-Walk.kmz.png2014-10-10 20:06 0  
[   ]141023-1159-Walk.kmz2014-10-23 20:15 25K 
[   ]141023-1159-Walk.kmz.php2014-10-23 20:15 719  
[IMG]141023-1159-Walk.kmz.png2014-10-23 20:15 0  
[   ]141027-1401-Walk.kmz2014-10-27 21:48 11K 
[   ]141027-1401-Walk.kmz.php2014-10-27 21:48 712  
[IMG]141027-1401-Walk.kmz.png2014-10-27 21:48 0  
[   ]141028-1126-Walk.kmz2014-10-28 19:05 14K 
[   ]141028-1126-Walk.kmz.php2014-10-28 19:05 699  
[IMG]141028-1126-Walk.kmz.png2014-10-28 19:05 0  
[   ]141029-1121-Walk.kmz2014-10-29 20:25 28K 
[   ]141029-1121-Walk.kmz.php2014-10-29 20:25 715  
[IMG]141029-1121-Walk.kmz.png2014-10-29 20:25 0  
[   ]141115-1150-Walk.kmz2014-11-15 21:18 20K 
[   ]141115-1150-Walk.kmz.php2014-11-15 21:18 709  
[IMG]141115-1150-Walk.kmz.png2014-11-15 21:18 0  
[   ]141125-1039-Walk.kmz2014-11-25 19:13 12K 
[   ]141125-1039-Walk.kmz.php2014-11-25 19:13 709  
[IMG]141125-1039-Walk.kmz.png2014-11-25 19:13 0  
[   ]141126-1352-Walk.kmz2014-11-26 23:37 27K 
[   ]141126-1352-Walk.kmz.php2014-11-26 23:37 726  
[IMG]141126-1352-Walk.kmz.png2014-11-26 23:37 0  
[   ]150129-1249-Walk.kmz2015-01-29 21:26 12K 
[   ]150129-1249-Walk.kmz.php2015-01-29 21:26 708  
[IMG]150129-1249-Walk.kmz.png2015-01-29 21:26 0  
[   ]150212-1256-Walk.kmz2015-02-12 22:36 24K 
[   ]150212-1256-Walk.kmz.php2015-02-12 22:36 720  
[IMG]150212-1256-Walk.kmz.png2015-02-12 22:36 0  

Apache/2.4.29 (Ubuntu) Server at kineticgps.com Port 80